Fernwood, MS

8:31 AM CST on February 19, 2017 (GMT -0600)
McComb-Pike County-Lewis

Weather History for KMCB - October, 2013

Change the Weather History Date:

Saturday, October 5, 2013

  Actual Average Record
Temperature  
Mean Temperature 78 °F -  
Max Temperature 86 °F 83 °F 91 °F (1951)
Min Temperature 71 °F 57 °F 40 °F (1987)
Cooling Degree Days 14    
Growing Degree Days 28 (Base 50)    
Moisture  
Dew Point 72 °F    
Average Humidity 86    
Maximum Humidity 100    
Minimum Humidity 59    
Precipitation  
Precipitation 0.13 in - - ()
Sea Level Pressure  
Sea Level Pressure 29.97 in    
Wind  
Wind Speed 3 mph (SE)    
Max Wind Speed 10 mph    
Max Gust Speed 17 mph    
Visibility 7 miles    
Events Rain    
Averages and records for this station are not official NWS values.
T = Trace of Precipitation, MM = Missing Value Source: NWS Daily Summary

Daily Weather History Graph

Daily Weather History Graph

Search for Another Location

Airport or City:

Trip Planner

Search our weather history database for the weather conditions in past years. The results will help you decide how hot, cold, wet, or windy it might be!

Date:

Astronomy

Oct. 05, 2013 Rise Set
Actual Time 6:58 AM CDT 6:41 PM CDT
Civil Twilight 6:34 AM CDT 7:05 PM CDT
Nautical Twilight 6:05 AM CDT 7:33 PM CDT
Astronomical Twilight 5:37 AM CDT 8:01 PM CDT
Moon 7:32 AM CDT (10/5) 7:07 PM CDT (10/5)
Length of Visible Light 12h 31m
Length of Day
11h 43m
New Moon, 1% of the Moon is Illuminated
Oct 5
New Moon
Oct 11
First Quarter
Oct 18
Full
Oct 26
Last Quarter
Nov 3
New

Hourly Weather History & Observations

Time (CDT) Temp. Heat Index Dew Point Humidity Pressure Visibility Wind Dir Wind Speed Gust Speed Precip Events Conditions
12:53 AM 73.0 °F - 71.1 °F 93% 29.99 in 7.0 mi SE 3.5 mph - N/A   Clear
1:53 AM 73.0 °F - 71.1 °F 93% 29.99 in 7.0 mi Calm Calm - N/A   Clear
2:53 AM 72.0 °F - 70.0 °F 93% 29.98 in 10.0 mi Calm Calm - N/A   Clear
3:32 AM 71.6 °F - 69.8 °F 94% 29.99 in 6.0 mi Calm Calm - N/A   Scattered Clouds
3:40 AM 71.6 °F - 71.6 °F 100% 29.98 in 6.0 mi East 4.6 mph - N/A   Mostly Cloudy
3:53 AM 72.0 °F - 71.1 °F 97% 29.97 in 1.8 mi Variable 3.5 mph - N/A   Overcast
4:13 AM 71.6 °F - 71.6 °F 100% 29.98 in 0.8 mi Variable 3.5 mph - N/A   Mist
4:21 AM 73.4 °F - 71.6 °F 94% 29.98 in 1.0 mi Variable 4.6 mph - N/A   Mist
4:32 AM 73.4 °F - 71.6 °F 94% 29.98 in 0.8 mi Variable 3.5 mph - N/A   Mist
4:49 AM 73.4 °F - 71.6 °F 94% 29.99 in 2.0 mi Variable 4.6 mph - N/A   Overcast
4:53 AM 73.0 °F - 72.0 °F 96% 29.97 in 2.5 mi Variable 3.5 mph - N/A   Overcast
5:11 AM 73.4 °F - 73.4 °F 100% 29.99 in 1.2 mi Variable 3.5 mph - 0.01 in   Overcast
5:23 AM 73.4 °F - 73.4 °F 100% 29.99 in 0.8 mi ESE 5.8 mph - 0.01 in   Mist
5:50 AM 73.4 °F - 73.4 °F 100% 30.00 in 2.0 mi Calm Calm - 0.01 in   Overcast
5:53 AM 73.9 °F - 73.0 °F 97% 29.99 in 3.0 mi Calm Calm - 0.01 in   Overcast
6:53 AM 73.0 °F - 72.0 °F 96% 30.00 in 5.0 mi Calm Calm - N/A   Overcast
7:34 AM 73.4 °F - 73.4 °F 100% 30.02 in 4.0 mi East 3.5 mph - N/A   Overcast
7:53 AM 73.9 °F - 73.0 °F 97% 30.01 in 4.0 mi Variable 3.5 mph - N/A   Overcast
8:53 AM 75.9 °F - 73.0 °F 91% 30.01 in 7.0 mi Variable 5.8 mph - N/A   Overcast
9:15 AM 77.0 °F - 71.6 °F 83% 30.02 in 9.0 mi Variable 4.6 mph - N/A   Overcast
9:53 AM 80.1 °F 84.2 °F 73.0 °F 79% 30.01 in 10.0 mi Calm Calm - N/A   Mostly Cloudy
10:12 AM 80.6 °F 85.4 °F 73.4 °F 79% 30.03 in 10.0 mi Variable 4.6 mph - N/A   Scattered Clouds
10:30 AM 80.6 °F 85.4 °F 73.4 °F 79% 30.03 in 10.0 mi Variable 6.9 mph - N/A   Mostly Cloudy
10:53 AM 82.0 °F 86.7 °F 72.0 °F 71% 30.00 in 10.0 mi ESE 8.1 mph - N/A   Scattered Clouds
11:02 AM 82.4 °F 87.2 °F 71.6 °F 70% 30.02 in 10.0 mi SSE 9.2 mph - N/A   Mostly Cloudy
11:19 AM 82.4 °F 87.2 °F 71.6 °F 70% 30.02 in 10.0 mi SE 8.1 mph - N/A   Mostly Cloudy
11:53 AM 84.0 °F 89.0 °F 71.1 °F 65% 29.99 in 10.0 mi SSE 10.4 mph - N/A   Mostly Cloudy
12:53 PM 80.1 °F 83.8 °F 72.0 °F 76% 29.98 in 10.0 mi Variable 4.6 mph - 0.01 in   Overcast
1:53 PM 82.9 °F 88.0 °F 72.0 °F 69% 29.94 in 10.0 mi Variable 4.6 mph - N/A   Mostly Cloudy
2:16 PM 80.6 °F 85.4 °F 73.4 °F 79% 29.95 in 1.8 mi Variable 4.6 mph 17.3 mph 0.10 in Rain Heavy Rain
2:24 PM 78.8 °F - 75.2 °F 89% 29.95 in 3.0 mi Variable 3.5 mph - 0.11 in Rain Light Rain
2:53 PM 81.0 °F 86.7 °F 75.0 °F 82% 29.92 in 10.0 mi ESE 4.6 mph - 0.11 in Rain Light Rain
3:53 PM 86.0 °F 90.7 °F 70.0 °F 59% 29.91 in 10.0 mi SSE 10.4 mph - 0.00 in   Scattered Clouds
4:53 PM 82.0 °F 85.5 °F 69.1 °F 65% 29.91 in 10.0 mi SE 4.6 mph - N/A   Partly Cloudy
5:53 PM 82.0 °F 85.9 °F 70.0 °F 67% 29.90 in 10.0 mi SE 4.6 mph - N/A   Clear
6:53 PM 79.0 °F - 68.0 °F 69% 29.91 in 10.0 mi SSE 4.6 mph - N/A   Clear
7:53 PM 75.0 °F - 68.0 °F 79% 29.93 in 10.0 mi SSE 4.6 mph - N/A   Clear
8:53 PM 73.0 °F - 69.1 °F 87% 29.95 in 10.0 mi SSE 3.5 mph - N/A   Clear
9:53 PM 73.0 °F - 69.1 °F 87% 29.94 in 10.0 mi ESE 3.5 mph - N/A   Clear
10:53 PM 73.0 °F - 70.0 °F 90% 29.93 in 10.0 mi Calm Calm - N/A   Partly Cloudy
11:53 PM 72.0 °F - 70.0 °F 93% 29.91 in 4.0 mi SE 3.5 mph - N/A   Clear